Location: Acequia del Cap
(41.7000°N, 0.6167°E)
Time: 00:43:45
(UTC+00:00)

NOSS 3-1 (C) - Pass Details

Date: 07 August 2020
Orbit: 744 x 1464 km, 63.4° (Epoch: 17 September)

Event Time Altitude Azimuth Distance (km) Brightness Sun altitude
Exits shadow 04:04:55 10° 258° (WSW) 2,388 5.0 -9.6°
Maximum altitude 04:09:46 32° 321° (NW) 1,498 4.4 -8.9°
Drops below altitude 10° 04:15:24 10° 23° (NNE) 2,777 6.8 -8.0°
Sets 04:18:34 0° 33° (NNE) 3,859 7.9 -7.4°
